| time (UTC) | temp F | wind direction | speed knots | gust knots | rain 1hr in | rain 24hr in | rain mn in | humidity % | barometer mb |
| 20260506092856 | 48 | 229 | 0.9 | 2.6 | 0.00 | 0.00 | 0.00 | 67 | 1015.4 |
| 20260506091357 | 48 | 103 | 2.6 | 7.8 | 0.00 | 0.00 | 0.00 | 66 | 1015.5 |
| 20260506090856 | 47 | 81 | 1.7 | 6.1 | 0.00 | 0.00 | 0.00 | 71 | 1015.5 |
| 20260506090356 | 46 | 78 | 1.7 | 7.0 | 0.00 | 0.00 | 0.00 | 71 | 1015.5 |
| 20260506085857 | 46 | 17 | 3.5 | 8.7 | 0.00 | 0.00 | 0.00 | 72 | 1015.5 |
| 20260506085356 | 46 | 12 | 2.6 | 7.0 | 0.00 | 0.00 | 0.00 | 71 | 1015.5 |
| 20260506084856 | 46 | 27 | 2.6 | 7.0 | 0.00 | 0.00 | 0.00 | 72 | 1015.5 |
| 20260506084356 | 46 | 12 | 1.7 | 7.0 | 0.00 | 0.00 | 0.00 | 73 | 1015.5 |
| 20260506083355 | 46 | 46 | 1.7 | 6.1 | 0.00 | 0.00 | 0.00 | 71 | 1015.5 |
| 20260506082856 | 45 | 40 | 1.7 | 7.0 | 0.00 | 0.00 | 0.00 | 73 | 1015.5 |
| 20260506082356 | 45 | 58 | 2.6 | 7.0 | 0.00 | 0.00 | 0.00 | 73 | 1015.6 |
| 20260506081856 | 44 | 23 | 2.6 | 6.1 | 0.00 | 0.00 | 0.00 | 74 | 1015.6 |
| 20260506081356 | 44 | 2 | 1.7 | 6.1 | 0.00 | 0.00 | 0.00 | 74 | 1015.6 |
| 20260506080857 | 44 | 39 | 2.6 | 8.7 | 0.00 | 0.00 | 0.00 | 74 | 1015.6 |
| 20260506080356 | 44 | 30 | 2.6 | 8.7 | 0.00 | 0.00 | 0.00 | 75 | 1015.5 |
| 20260506073355 | 43 | 20 | 1.7 | 7.0 | 0.00 | 0.00 | 0.00 | 75 | 1015.4 |
| 20260506072355 | 43 | 94 | 1.7 | 7.0 | 0.00 | 0.00 | 0.00 | 76 | 1015.4 |
| 20260506071856 | 43 | 102 | 1.7 | 5.2 | 0.00 | 0.00 | 0.00 | 76 | 1015.4 |
| 20260506071356 | 43 | 65 | 2.6 | 7.0 | 0.00 | 0.00 | 0.00 | 76 | 1015.4 |
| 20260506070856 | 43 | 14 | 2.6 | 6.1 | 0.00 | 0.00 | 0.00 | 77 | 1015.4 |
| 20260506070356 | 42 | 64 | 0.9 | 4.3 | 0.00 | 0.00 | 0.00 | 78 | 1015.4 |
| 20260506062356 | 39 | 173 | 0.0 | 0.9 | 0.00 | 0.00 | 0.00 | 81 | 1015.2 |
| 20260506061856 | 39 | 173 | 0.0 | 1.7 | 0.00 | 0.00 | 0.00 | 81 | 1015.1 |
| 20260506061356 | 39 | 173 | 0.9 | 2.6 | 0.00 | 0.00 | 0.00 | 82 | 1015.1 |
| 20260506060856 | 38 | 138 | 0.9 | 1.7 | 0.00 | 0.00 | 0.00 | 82 | 1015.1 |
| 20260506060355 | 38 | 161 | 0.9 | 2.6 | 0.00 | 0.00 | 0.00 | 82 | 1015.0 |
| 20260506051355 | 37 | 34 | 0.9 | 2.6 | 0.00 | 0.00 | 0.00 | 84 | 1015.1 |
| 20260506050355 | 36 | 14 | 0.9 | 2.6 | 0.00 | 0.00 | 0.00 | 85 | 1015.1 |
| 20260506044356 | 36 | 336 | 0.0 | 1.7 | 0.00 | 0.00 | 0.00 | 83 | 1015.1 |
| 20260506043855 | 36 | 336 | 0.0 | 1.7 | 0.00 | 0.00 | 0.00 | 83 | 1015.1 |
| 20260506043356 | 36 | 289 | 0.9 | 1.7 | 0.00 | 0.00 | 0.00 | 83 | 1015.1 |
| 20260506042355 | 36 | 263 | 0.0 | 1.7 | 0.00 | 0.00 | 0.00 | 84 | 1015.1 |
| 20260506041856 | 36 | 265 | 0.0 | 1.7 | 0.00 | 0.00 | 0.00 | 84 | 1015.0 |
| 20260506040855 | 36 | 265 | 0.0 | 0.9 | 0.00 | 0.00 | 0.00 | 84 | 1015.1 |
| 20260506040355 | 35 | 265 | 0.0 | 1.7 | 0.00 | 0.00 | 0.00 | 84 | 1015.1 |
| 20260506035856 | 35 | 265 | 0.0 | 1.7 | 0.00 | 0.00 | 0.00 | 84 | 1015.1 |
| 20260506035355 | 35 | 265 | 0.0 | 1.7 | 0.00 | 0.00 | 0.00 | 84 | 1015.1 |
| 20260506034856 | 36 | 265 | 0.0 | 0.9 | 0.00 | 0.00 | 0.00 | 84 | 1015.1 |
| 20260506034355 | 36 | 265 | 0.0 | 1.7 | 0.00 | 0.00 | 0.00 | 84 | 1015.0 |
| 20260506033855 | 36 | 265 | 0.0 | 1.7 | 0.00 | 0.00 | 0.00 | 85 | 1015.1 |
| 20260506033355 | 36 | 270 | 0.9 | 2.6 | 0.00 | 0.00 | 0.00 | 84 | 1015.1 |
| 20260506032856 | 36 | 328 | 0.0 | 0.9 | 0.00 | 0.00 | 0.00 | 84 | 1015.2 |
| 20260506031856 | 36 | 328 | 0.0 | 0.9 | 0.00 | 0.00 | 0.00 | 84 | 1015.3 |
| 20260506031355 | 37 | 328 | 0.0 | 1.7 | 0.00 | 0.00 | 0.00 | 84 | 1015.3 |
| 20260506030856 | 37 | 328 | 0.0 | 1.7 | 0.00 | 0.00 | 0.00 | 84 | 1015.3 |
| 20260506030355 | 37 | 328 | 0.0 | 1.7 | 0.00 | 0.00 | 0.00 | 85 | 1015.3 |
| 20260506025857 | 37 | 328 | 0.0 | 1.7 | 0.00 | 0.00 | 0.00 | 85 | 1015.3 |
| 20260506025356 | 37 | 328 | 0.0 | 0.9 | 0.00 | 0.00 | 0.00 | 85 | 1015.3 |
| 20260506024356 | 37 | 328 | 0.0 | 1.7 | 0.00 | 0.00 | 0.00 | 85 | 1015.3 |
| 20260506023855 | 37 | 328 | 0.0 | 0.0 | 0.00 | 0.00 | 0.00 | 85 | 1015.3 |
| 20260506022856 | 37 | 328 | 0.0 | 1.7 | 0.00 | 0.00 | 0.00 | 85 | 1015.3 |
| 20260506022355 | 37 | 328 | 0.0 | 1.7 | 0.00 | 0.00 | 0.00 | 85 | 1015.3 |
| 20260506021856 | 38 | 328 | 0.0 | 2.6 | 0.00 | 0.00 | 0.00 | 85 | 1015.3 |
| 20260506021355 | 38 | 328 | 0.0 | 1.7 | 0.00 | 0.00 | 0.00 | 85 | 1015.3 |
| 20260506020855 | 38 | 328 | 0.0 | 1.7 | 0.00 | 0.00 | 0.00 | 86 | 1015.3 |
| 20260506020356 | 39 | 328 | 0.9 | 1.7 | 0.00 | 0.00 | 0.00 | 84 | 1015.2 |
| 20260506015855 | 39 | 328 | 0.9 | 1.7 | 0.00 | 0.00 | 0.00 | 85 | 1015.3 |
| 20260506015355 | 39 | 328 | 0.0 | 1.7 | 0.00 | 0.00 | 0.00 | 85 | 1015.3 |
| 20260506014855 | 39 | 2 | 0.9 | 2.6 | 0.00 | 0.00 | 0.00 | 85 | 1015.4 |
| 20260506014355 | 39 | 81 | 0.9 | 1.7 | 0.00 | 0.00 | 0.00 | 85 | 1015.4 |
| 20260506013855 | 39 | 81 | 0.9 | 1.7 | 0.00 | 0.00 | 0.00 | 85 | 1015.4 |
| 20260506013355 | 39 | 81 | 0.9 | 2.6 | 0.00 | 0.00 | 0.00 | 84 | 1015.4 |
| 20260506012856 | 40 | 81 | 0.0 | 1.7 | 0.00 | 0.00 | 0.00 | 84 | 1015.4 |
| 20260506012355 | 40 | 81 | 1.7 | 2.6 | 0.00 | 0.00 | 0.00 | 84 | 1015.6 |
| 20260506011855 | 40 | 81 | 0.0 | 1.7 | 0.00 | 0.00 | 0.00 | 84 | 1015.5 |
| 20260506011355 | 40 | 81 | 0.0 | 0.0 | 0.00 | 0.00 | 0.00 | 83 | 1015.6 |
| 20260506010355 | 41 | 81 | 0.0 | 0.9 | 0.00 | 0.00 | 0.00 | 83 | 1015.6 |
| 20260506005856 | 41 | 81 | 0.0 | 0.9 | 0.00 | 0.00 | 0.00 | 83 | 1015.5 |
| 20260506005355 | 42 | 81 | 0.0 | 1.7 | 0.00 | 0.00 | 0.00 | 83 | 1015.5 |
| 20260506004354 | 42 | 81 | 0.9 | 4.3 | 0.00 | 0.00 | 0.00 | 83 | 1015.6 |
| 20260506003856 | 42 | 81 | 0.0 | 1.7 | 0.00 | 0.00 | 0.00 | 82 | 1015.6 |
| 20260506003356 | 42 | 81 | 1.7 | 2.6 | 0.00 | 0.00 | 0.00 | 82 | 1015.6 |
| 20260506002856 | 42 | 81 | 0.0 | 2.6 | 0.00 | 0.00 | 0.00 | 83 | 1015.6 |
| 20260506001855 | 43 | 81 | 0.9 | 1.7 | 0.00 | 0.00 | 0.00 | 83 | 1015.6 |
| 20260506001355 | 43 | 81 | 0.9 | 1.7 | 0.00 | 0.00 | 0.00 | 83 | 1015.6 |
| 20260506000855 | 43 | 81 | 1.7 | 13.9 | 0.00 | 0.00 | 0.00 | 82 | 1015.5 |
| 20260506000355 | 43 | 81 | 0.9 | 2.6 | 0.00 | 0.00 | 0.00 | 82 | 1015.6 |
| 20260505235355 | 43 | 81 | 0.9 | 2.6 | 0.00 | 0.00 | 0.00 | 82 | 1015.6 |
| 20260505234355 | 43 | 81 | 0.9 | 1.7 | 0.00 | 0.00 | 0.00 | 81 | 1015.7 |
| 20260505233855 | 43 | 81 | 0.9 | 2.6 | 0.00 | 0.00 | 0.00 | 81 | 1015.6 |
| 20260505233355 | 43 | 81 | 0.9 | 2.6 | 0.00 | 0.00 | 0.00 | 81 | 1015.5 |
| 20260505232855 | 43 | 81 | 1.7 | 6.1 | 0.00 | 0.00 | 0.00 | 80 | 1015.4 |
| 20260505232356 | 43 | 75 | 1.7 | 6.1 | 0.00 | 0.00 | 0.00 | 80 | 1015.5 |
| 20260505231855 | 43 | 12 | 1.7 | 7.0 | 0.00 | 0.00 | 0.00 | 80 | 1015.5 |
| 20260505231355 | 43 | 84 | 4.3 | 10.4 | 0.00 | 0.00 | 0.00 | 80 | 1015.5 |
| 20260505230935 | 43 | 328 | 1.7 | 7.8 | 0.00 | 0.00 | 0.00 | 80 | 1015.5 |
| 20260505230356 | 43 | 52 | 2.6 | 8.7 | 0.00 | 0.00 | 0.00 | 79 | 1015.5 |
| 20260505225856 | 43 | 88 | 1.7 | 7.8 | 0.00 | 0.00 | 0.00 | 79 | 1015.4 |
| 20260505225355 | 43 | 233 | 1.7 | 10.4 | 0.00 | 0.00 | 0.00 | 79 | 1015.4 |
| 20260505224855 | 43 | 111 | 1.7 | 6.1 | 0.00 | 0.00 | 0.00 | 79 | 1015.5 |
| 20260505224355 | 43 | 78 | 0.9 | 6.1 | 0.00 | 0.00 | 0.00 | 79 | 1015.5 |
| 20260505223856 | 43 | 16 | 1.7 | 5.2 | 0.00 | 0.00 | 0.00 | 79 | 1015.4 |
| 20260505223355 | 43 | 88 | 1.7 | 4.3 | 0.00 | 0.00 | 0.00 | 79 | 1015.5 |
| 20260505222855 | 43 | 187 | 0.9 | 7.0 | 0.00 | 0.00 | 0.00 | 79 | 1015.6 |
| 20260505221355 | 44 | 2 | 2.6 | 10.4 | 0.00 | 0.00 | 0.00 | 80 | 1015.5 |
| 20260505220355 | 44 | 56 | 2.6 | 10.4 | 0.00 | 0.00 | 0.00 | 79 | 1015.4 |
| 20260505215855 | 44 | 48 | 1.7 | 13.0 | 0.00 | 0.00 | 0.00 | 79 | 1015.4 |
| 20260505215355 | 44 | 12 | 2.6 | 7.8 | 0.00 | 0.00 | 0.00 | 80 | 1015.5 |
| 20260505214855 | 44 | 53 | 2.6 | 7.0 | 0.00 | 0.00 | 0.00 | 80 | 1015.4 |
| 20260505214355 | 44 | 66 | 1.7 | 6.1 | 0.00 | 0.00 | 0.00 | 80 | 1015.5 |
| 20260505213855 | 44 | 19 | 1.7 | 6.1 | 0.00 | 0.00 | 0.00 | 80 | 1015.5 |
| 20260505213355 | 44 | 20 | 2.6 | 8.7 | 0.00 | 0.00 | 0.00 | 79 | 1015.4 |
| 20260505212856 | 44 | 31 | 1.7 | 8.7 | 0.00 | 0.00 | 0.00 | 79 | 1015.4 |
| 20260505212355 | 44 | 24 | 4.3 | 8.7 | 0.00 | 0.00 | 0.00 | 79 | 1015.4 |
| 20260505211855 | 44 | 344 | 4.3 | 6.1 | 0.00 | 0.00 | 0.00 | 80 | 1015.3 |
| 20260505211355 | 44 | 355 | 2.6 | 7.8 | 0.00 | 0.00 | 0.00 | 80 | 1015.3 |
| 20260505210855 | 44 | 349 | 2.6 | 7.8 | 0.00 | 0.00 | 0.00 | 80 | 1015.3 |
| 20260505210355 | 44 | 17 | 3.5 | 10.4 | 0.00 | 0.00 | 0.00 | 80 | 1015.3 |
| 20260505205855 | 44 | 5 | 5.2 | 8.7 | 0.00 | 0.00 | 0.00 | 80 | 1015.3 |
| 20260505205355 | 44 | 51 | 4.3 | 7.0 | 0.00 | 0.00 | 0.00 | 80 | 1015.3 |
| 20260505204355 | 44 | 27 | 4.3 | 7.8 | 0.00 | 0.00 | 0.00 | 79 | 1015.2 |
| 20260505203855 | 44 | 359 | 2.6 | 6.1 | 0.00 | 0.00 | 0.00 | 79 | 1015.3 |
| 20260505202355 | 44 | 7 | 2.6 | 7.8 | 0.00 | 0.00 | 0.00 | 79 | 1015.2 |
| 20260505201856 | 45 | 26 | 3.5 | 7.8 | 0.00 | 0.00 | 0.00 | 79 | 1015.2 |
| 20260505201356 | 45 | 355 | 2.6 | 8.7 | 0.00 | 0.00 | 0.00 | 79 | 1015.1 |
| 20260505200855 | 45 | 15 | 5.2 | 10.4 | 0.00 | 0.00 | 0.00 | 79 | 1015.1 |
| 20260505200355 | 45 | 13 | 5.2 | 11.3 | 0.00 | 0.00 | 0.00 | 79 | 1015.1 |
| 20260505195356 | 45 | 351 | 3.5 | 7.8 | 0.00 | 0.00 | 0.00 | 78 | 1015.0 |
| 20260505194855 | 45 | 353 | 3.5 | 11.3 | 0.00 | 0.00 | 0.00 | 78 | 1015.0 |
| 20260505194355 | 45 | 12 | 3.5 | 7.0 | 0.00 | 0.00 | 0.00 | 78 | 1014.9 |
| 20260505193355 | 45 | 8 | 2.6 | 7.0 | 0.00 | 0.00 | 0.00 | 77 | 1014.9 |
| 20260505192355 | 45 | 27 | 4.3 | 13.0 | 0.00 | 0.00 | 0.00 | 78 | 1014.7 |
| 20260505191856 | 45 | 6 | 3.5 | 10.4 | 0.00 | 0.00 | 0.00 | 77 | 1014.7 |
| 20260505191355 | 45 | 15 | 4.3 | 10.4 | 0.00 | 0.00 | 0.00 | 78 | 1014.6 |
| 20260505190855 | 45 | 12 | 4.3 | 8.7 | 0.00 | 0.00 | 0.00 | 78 | 1014.7 |
| 20260505190355 | 45 | 359 | 4.3 | 10.4 | 0.00 | 0.00 | 0.00 | 78 | 1014.7 |
| 20260505185855 | 45 | 8 | 3.5 | 10.4 | 0.00 | 0.00 | 0.00 | 77 | 1014.6 |
| 20260505185355 | 46 | 26 | 5.2 | 11.3 | 0.00 | 0.00 | 0.00 | 77 | 1014.6 |
| 20260505183855 | 46 | 34 | 5.2 | 10.4 | 0.00 | 0.00 | 0.00 | 76 | 1014.5 |
| 20260505183355 | 46 | 15 | 5.2 | 10.4 | 0.00 | 0.00 | 0.00 | 76 | 1014.5 |
| 20260505182855 | 46 | 34 | 4.3 | 13.0 | 0.00 | 0.00 | 0.00 | 75 | 1014.4 |
| 20260505181354 | 47 | 20 | 4.3 | 11.3 | 0.00 | 0.00 | 0.00 | 77 | 1014.4 |
| 20260505180856 | 47 | 17 | 4.3 | 7.8 | 0.00 | 0.00 | 0.00 | 77 | 1014.3 |
| 20260505180355 | 47 | 21 | 3.5 | 7.0 | 0.00 | 0.00 | 0.00 | 77 | 1014.3 |
| 20260505175855 | 47 | 353 | 4.3 | 10.4 | 0.00 | 0.00 | 0.00 | 77 | 1014.3 |
| 20260505175355 | 47 | 17 | 4.3 | 10.4 | 0.00 | 0.00 | 0.00 | 77 | 1014.2 |
| 20260505174354 | 47 | 10 | 3.5 | 12.2 | 0.00 | 0.00 | 0.00 | 77 | 1014.2 |
| 20260505173855 | 48 | 358 | 4.3 | 10.4 | 0.00 | 0.00 | 0.00 | 77 | 1014.3 |
| 20260505173355 | 48 | 8 | 5.2 | 10.4 | 0.00 | 0.00 | 0.00 | 76 | 1014.2 |
| 20260505172855 | 48 | 0 | 4.3 | 8.7 | 0.00 | 0.00 | 0.00 | 76 | 1014.2 |
| 20260505172355 | 48 | 5 | 2.6 | 8.7 | 0.00 | 0.00 | 0.00 | 76 | 1014.3 |
| 20260505171855 | 48 | 26 | 2.6 | 8.7 | 0.00 | 0.00 | 0.00 | 76 | 1014.3 |
| 20260505171354 | 49 | 4 | 2.6 | 8.7 | 0.00 | 0.00 | 0.00 | 75 | 1014.2 |
| 20260505170854 | 49 | 7 | 5.2 | 10.4 | 0.00 | 0.00 | 0.00 | 74 | 1014.3 |
| 20260505170355 | 49 | 5 | 6.1 | 12.2 | 0.00 | 0.00 | 0.00 | 74 | 1014.3 |
| 20260505165856 | 49 | 358 | 3.5 | 7.8 | 0.00 | 0.00 | 0.00 | 74 | 1014.3 |
| 20260505163854 | 50 | 38 | 2.6 | 8.7 | 0.00 | 0.00 | 0.00 | 74 | 1014.2 |
| 20260505163355 | 50 | 27 | 2.6 | 7.8 | 0.00 | 0.00 | 0.00 | 75 | 1014.2 |
| 20260505162855 | 50 | 9 | 2.6 | 6.1 | 0.00 | 0.00 | 0.00 | 74 | 1014.2 |
| 20260505162354 | 50 | 1 | 4.3 | 10.4 | 0.00 | 0.00 | 0.00 | 74 | 1014.2 |
| 20260505161354 | 50 | 18 | 4.3 | 7.8 | 0.00 | 0.00 | 0.00 | 74 | 1014.1 |
| 20260505160855 | 50 | 5 | 2.6 | 5.2 | 0.00 | 0.00 | 0.00 | 74 | 1014.1 |
| 20260505160355 | 50 | 29 | 2.6 | 7.0 | 0.00 | 0.00 | 0.00 | 74 | 1014.1 |
| 20260505152855 | 50 | 18 | 1.7 | 7.0 | 0.00 | 0.00 | 0.00 | 75 | 1014.0 |
| 20260505152355 | 50 | 19 | 3.5 | 8.7 | 0.00 | 0.00 | 0.00 | 74 | 1014.0 |
| 20260505151855 | 51 | 23 | 2.6 | 5.2 | 0.00 | 0.00 | 0.00 | 75 | 1014.0 |
| 20260505151357 | 51 | 350 | 2.6 | 7.0 | 0.00 | 0.00 | 0.00 | 75 | 1014.0 |
| 20260505150855 | 51 | 24 | 0.9 | 7.0 | 0.00 | 0.00 | 0.00 | 76 | 1013.9 |
| 20260505150355 | 51 | 26 | 1.7 | 4.3 | 0.00 | 0.00 | 0.00 | 76 | 1013.9 |
| 20260505140355 | 53 | 15 | 3.5 | 8.7 | 0.00 | 0.00 | 0.00 | 73 | 1013.6 |
| 20260505124854 | 53 | 266 | 0.9 | 2.6 | 0.00 | 0.00 | 0.00 | 63 | 1013.6 |
| 20260505124355 | 53 | 272 | 1.7 | 4.3 | 0.00 | 0.00 | 0.00 | 64 | 1013.6 |
| 20260505123854 | 53 | 302 | 1.7 | 4.3 | 0.00 | 0.00 | 0.00 | 67 | 1013.6 |
| 20260505123355 | 53 | 260 | 1.7 | 7.8 | 0.00 | 0.00 | 0.00 | 67 | 1013.6 |
| 20260505122855 | 52 | 229 | 1.7 | 4.3 | 0.00 | 0.00 | 0.00 | 65 | 1013.6 |
| 20260505122355 | 52 | 249 | 1.7 | 2.6 | 0.00 | 0.00 | 0.00 | 65 | 1013.6 |
| 20260505121355 | 52 | 267 | 0.0 | 2.6 | 0.00 | 0.00 | 0.00 | 66 | 1013.7 |
| 20260505120855 | 52 | 236 | 0.9 | 2.6 | 0.00 | 0.00 | 0.00 | 65 | 1013.7 |
| 20260505120355 | 52 | 263 | 1.7 | 2.6 | 0.00 | 0.00 | 0.00 | 65 | 1013.7 |
| 20260505115855 | 52 | 260 | 2.6 | 5.2 | 0.00 | 0.00 | 0.00 | 66 | 1013.7 |
| 20260505115355 | 52 | 258 | 1.7 | 5.2 | 0.00 | 0.00 | 0.00 | 67 | 1013.7 |
| 20260505114854 | 52 | 262 | 1.7 | 4.3 | 0.00 | 0.00 | 0.00 | 66 | 1013.7 |
| 20260505114355 | 52 | 228 | 2.6 | 5.2 | 0.00 | 0.00 | 0.00 | 67 | 1013.7 |
| 20260505113855 | 52 | 245 | 2.6 | 6.1 | 0.00 | 0.00 | 0.00 | 68 | 1013.7 |
| 20260505113354 | 52 | 236 | 3.5 | 6.1 | 0.00 | 0.00 | 0.00 | 68 | 1013.8 |
| 20260505112355 | 51 | 263 | 0.9 | 4.3 | 0.00 | 0.00 | 0.00 | 71 | 1013.9 |
| 20260505111855 | 51 | 277 | 1.7 | 5.2 | 0.00 | 0.00 | 0.00 | 70 | 1013.9 |
| 20260505110855 | 51 | 277 | 1.7 | 2.6 | 0.00 | 0.00 | 0.00 | 70 | 1013.8 |
| 20260505110354 | 51 | 275 | 0.9 | 2.6 | 0.00 | 0.00 | 0.00 | 73 | 1013.9 |
| 20260505101355 | 50 | 286 | 0.9 | 2.6 | 0.00 | 0.00 | 0.00 | 74 | 1014.0 |
| 20260505100356 | 50 | 297 | 0.9 | 2.6 | 0.00 | 0.00 | 0.00 | 74 | 1014.0 |
| 20260505095855 | 50 | 278 | 0.9 | 2.6 | 0.00 | 0.00 | 0.00 | 75 | 1014.0 |
| 20260505095354 | 50 | 342 | 0.9 | 2.6 | 0.00 | 0.00 | 0.00 | 74 | 1014.0 |
| 20260505094855 | 50 | 298 | 0.9 | 2.6 | 0.00 | 0.00 | 0.00 | 74 | 1014.0 |
| 20260505093855 | 50 | 278 | 1.7 | 5.2 | 0.00 | 0.00 | 0.00 | 74 | 1014.0 |
| 20260505093354 | 50 | 317 | 0.9 | 1.7 | 0.00 | 0.00 | 0.00 | 73 | 1014.0 |